Terminal Aerodrome Forecast
Issued by NWS Grand Rapids, MI

Home | Current Version | Previous Version | Text Only | Print | Product List | Glossary On
Versions: 1 2 3 4 5 6 7 8 9 10 11 12 13 14 15 16 17 18 19 20 21 22 23 24 25
758
FTUS43 KGRR 100338 AAB
TAFGRR
TAF AMD
KGRR 100338Z 1004/1024 27007KT 3SM -SN BR BKN035
     FM100700 28006KT 5SM -SN BR SCT035 OVC050
     FM101200 28009KT 1 1/2SM -SN BR VV009
     FM101800 27009KT 6SM -SN OVC025=

USA.gov is the U.S. government's official web portal to all federal, state and local government web resources and services.